Time,TemperatureF,DewpointF,PressureIn,WindDirection,WindDirectionDegrees,WindSpeedMPH,WindSpeedGustMPH,Humidity,HourlyPrecipIn,Conditions,Clouds,dailyrainin,SoftwareType,DateUTC
2013-10-22 00:02:00,26.0,24.0,30.41,NNE,20,6.0,7.0,91,-99.99,,,-99.99,,2013-10-22 06:02:00,
2013-10-22 00:07:00,26.0,24.0,30.41,NE,40,4.0,7.0,91,-99.99,,,-99.99,,2013-10-22 06:07:00,
2013-10-22 00:17:00,26.0,24.0,30.41,NW,320,6.0,7.0,91,-99.99,,,-99.99,,2013-10-22 06:17:00,
2013-10-22 00:27:00,26.0,24.0,30.42,NW,320,8.0,11.0,91,-99.99,,,-99.99,,2013-10-22 06:27:00,
2013-10-22 00:32:00,26.0,24.0,30.42,WNW,290,4.0,10.0,91,-99.99,,,-99.99,,2013-10-22 06:32:00,
2013-10-22 00:37:00,26.0,23.0,30.42,NNW,330,7.0,7.0,91,-99.99,,,-99.99,,2013-10-22 06:37:00,
2013-10-22 00:43:00,25.0,23.0,30.42,NNW,330,9.0,9.0,91,-99.99,,,-99.99,,2013-10-22 06:43:00,
2013-10-22 00:53:00,25.0,23.0,30.42,NNE,20,5.0,7.0,92,-99.99,,,-99.99,,2013-10-22 06:53:00,
2013-10-22 01:02:00,25.0,23.0,30.42,NNW,340,11.0,11.0,93,-99.99,,,-99.99,,2013-10-22 07:02:00,
2013-10-22 01:08:00,25.0,23.0,30.42,NNW,330,7.0,11.0,93,-99.99,,,-99.99,,2013-10-22 07:08:00,
2013-10-22 01:18:00,24.0,22.0,30.42,NNE,20,5.0,9.0,92,-99.99,,,-99.99,,2013-10-22 07:18:00,
2013-10-22 01:23:00,24.0,22.0,30.42,North,350,9.0,9.0,93,-99.99,,,-99.99,,2013-10-22 07:23:00,
2013-10-22 01:28:00,24.0,23.0,30.42,NNW,340,9.0,11.0,93,-99.99,,,-99.99,,2013-10-22 07:28:00,
2013-10-22 01:33:00,24.0,23.0,30.42,NNW,340,9.0,10.0,93,-99.99,,,-99.99,,2013-10-22 07:33:00,
2013-10-22 01:38:00,25.0,23.0,30.42,North,0,7.0,10.0,93,-99.99,,,-99.99,,2013-10-22 07:38:00,
2013-10-22 01:43:00,25.0,23.0,30.42,NNW,340,5.0,8.0,93,-99.99,,,-99.99,,2013-10-22 07:43:00,
2013-10-22 01:53:00,24.0,23.0,30.42,NE,40,3.0,8.0,93,-99.99,,,-99.99,,2013-10-22 07:53:00,
2013-10-22 02:03:00,24.0,22.0,30.42,North,350,12.0,12.0,93,-99.99,,,-99.99,,2013-10-22 08:03:00,
2013-10-22 02:08:00,24.0,22.0,30.42,North,0,6.0,10.0,94,-99.99,,,-99.99,,2013-10-22 08:08:00,
2013-10-22 02:13:00,24.0,23.0,30.43,NNW,340,7.0,9.0,94,-99.99,,,-99.99,,2013-10-22 08:13:00,
2013-10-22 02:18:00,24.0,23.0,30.42,NNW,330,9.0,9.0,94,-99.99,,,-99.99,,2013-10-22 08:18:00,
2013-10-22 02:28:00,24.0,22.0,30.43,NE,40,0.0,9.0,93,-99.99,,,-99.99,,2013-10-22 08:28:00,
2013-10-22 02:38:00,24.0,22.0,30.43,North,350,6.0,9.0,93,-99.99,,,-99.99,,2013-10-22 08:38:00,
2013-10-22 02:48:00,23.0,21.0,30.43,North,10,5.0,7.0,93,-99.99,,,-99.99,,2013-10-22 08:48:00,
2013-10-22 02:53:00,23.0,21.0,30.43,North,350,7.0,8.0,94,-99.99,,,-99.99,,2013-10-22 08:53:00,
2013-10-22 02:58:00,23.0,21.0,30.42,North,10,7.0,9.0,95,-99.99,,,-99.99,,2013-10-22 08:58:00,
2013-10-22 03:03:00,23.0,21.0,30.42,NNW,340,8.0,8.0,95,-99.99,,,-99.99,,2013-10-22 09:03:00,
2013-10-22 03:08:00,23.0,21.0,30.43,North,350,6.0,9.0,95,-99.99,,,-99.99,,2013-10-22 09:08:00,
2013-10-22 03:13:00,22.0,21.0,30.42,NNW,330,6.0,7.0,95,-99.99,,,-99.99,,2013-10-22 09:13:00,
2013-10-22 03:18:00,22.0,21.0,30.42,NNW,340,8.0,9.0,95,-99.99,,,-99.99,,2013-10-22 09:18:00,
2013-10-22 03:23:00,23.0,21.0,30.42,NW,320,9.0,9.0,95,-99.99,,,-99.99,,2013-10-22 09:23:00,
2013-10-22 03:28:00,23.0,21.0,30.42,NW,320,9.0,9.0,95,-99.99,,,-99.99,,2013-10-22 09:28:00,
2013-10-22 03:33:00,23.0,22.0,30.42,NW,310,10.0,10.0,96,-99.99,,,-99.99,,2013-10-22 09:33:00,
2013-10-22 03:38:00,23.0,22.0,30.42,North,350,8.0,9.0,95,-99.99,,,-99.99,,2013-10-22 09:38:00,
2013-10-22 03:43:00,23.0,22.0,30.41,North,0,3.0,9.0,95,-99.99,,,-99.99,,2013-10-22 09:43:00,
2013-10-22 03:53:00,23.0,22.0,30.41,NNW,330,6.0,8.0,95,-99.99,,,-99.99,,2013-10-22 09:53:00,
2013-10-22 03:58:00,23.0,22.0,30.41,North,0,4.0,7.0,95,-99.99,,,-99.99,,2013-10-22 09:58:00,
2013-10-22 04:08:00,23.0,22.0,30.42,North,0,3.0,6.0,95,-99.99,,,-99.99,,2013-10-22 10:08:00,
2013-10-22 04:13:00,23.0,21.0,30.42,NW,320,3.0,6.0,94,-99.99,,,-99.99,,2013-10-22 10:13:00,
2013-10-22 04:18:00,22.0,21.0,30.42,WNW,300,3.0,4.0,94,-99.99,,,-99.99,,2013-10-22 10:18:00,
2013-10-22 04:28:00,22.0,21.0,30.42,North,0,0.0,5.0,95,-99.99,,,-99.99,,2013-10-22 10:28:00,
2013-10-22 04:38:00,22.0,21.0,30.42,WNW,300,6.0,6.0,95,-99.99,,,-99.99,,2013-10-22 10:38:00,
2013-10-22 04:48:00,22.0,21.0,30.42,North,0,3.0,6.0,95,-99.99,,,-99.99,,2013-10-22 10:48:00,
2013-10-22 04:58:00,22.0,20.0,30.42,NW,320,7.0,7.0,95,-99.99,,,-99.99,,2013-10-22 10:58:00,
2013-10-22 05:03:00,21.0,20.0,30.42,NNW,340,6.0,8.0,95,-99.99,,,-99.99,,2013-10-22 11:03:00,
2013-10-22 05:08:00,21.0,20.0,30.42,NNW,330,6.0,8.0,95,-99.99,,,-99.99,,2013-10-22 11:08:00,
2013-10-22 05:18:00,21.0,20.0,30.42,NNW,340,7.0,8.0,96,-99.99,,,-99.99,,2013-10-22 11:18:00,
2013-10-22 05:28:00,22.0,21.0,30.43,NW,320,8.0,9.0,97,-99.99,,,-99.99,,2013-10-22 11:28:00,
2013-10-22 05:38:00,22.0,21.0,30.43,NW,320,6.0,8.0,96,-99.99,,,-99.99,,2013-10-22 11:38:00,
2013-10-22 05:43:00,22.0,21.0,30.43,NNW,340,8.0,8.0,95,-99.99,,,-99.99,,2013-10-22 11:43:00,
2013-10-22 05:48:00,21.0,20.0,30.43,NW,320,4.0,9.0,96,-99.99,,,-99.99,,2013-10-22 11:48:00,
2013-10-22 05:53:00,21.0,20.0,30.43,North,0,7.0,7.0,96,-99.99,,,-99.99,,2013-10-22 11:53:00,
2013-10-22 05:58:00,21.0,20.0,30.43,North,0,6.0,7.0,95,-99.99,,,-99.99,,2013-10-22 11:58:00,
2013-10-22 06:03:00,21.0,20.0,30.43,North,0,4.0,8.0,95,-99.99,,,-99.99,,2013-10-22 12:03:00,
2013-10-22 06:13:00,20.0,19.0,30.44,North,350,7.0,8.0,95,-99.99,,,-99.99,,2013-10-22 12:13:00,
2013-10-22 06:23:00,20.0,19.0,30.43,NNE,30,5.0,8.0,96,-99.99,,,-99.99,,2013-10-22 12:23:00,
2013-10-22 06:28:00,20.0,19.0,30.43,NNW,340,6.0,6.0,96,-99.99,,,-99.99,,2013-10-22 12:28:00,
2013-10-22 06:33:00,20.0,19.0,30.43,NNW,340,3.0,7.0,96,-99.99,,,-99.99,,2013-10-22 12:33:00,
2013-10-22 06:43:00,20.0,19.0,30.43,NNW,330,8.0,8.0,96,-99.99,,,-99.99,,2013-10-22 12:43:00,
2013-10-22 06:53:00,20.0,19.0,30.43,NNW,340,9.0,9.0,96,-99.99,,,-99.99,,2013-10-22 12:53:00,
2013-10-22 07:03:00,20.0,19.0,30.44,ENE,70,5.0,8.0,96,-99.99,,,-99.99,,2013-10-22 13:03:00,
2013-10-22 07:08:00,20.0,19.0,30.44,North,0,7.0,9.0,96,-99.99,,,-99.99,,2013-10-22 13:08:00,
2013-10-22 07:18:00,20.0,19.0,30.44,NNE,20,7.0,9.0,97,-99.99,,,-99.99,,2013-10-22 13:18:00,
2013-10-22 07:23:00,20.0,19.0,30.44,North,10,6.0,8.0,97,-99.99,,,-99.99,,2013-10-22 13:23:00,
2013-10-22 07:33:00,20.0,19.0,30.44,North,10,3.0,8.0,97,-99.99,,,-99.99,,2013-10-22 13:33:00,
2013-10-22 07:43:00,20.0,19.0,30.45,NNW,340,6.0,0.0,96,-99.99,,,-99.99,,2013-10-22 13:43:00,
2013-10-22 07:48:00,20.0,19.0,30.45,NNW,340,9.0,9.0,97,-99.99,,,-99.99,,2013-10-22 13:48:00,
2013-10-22 07:53:00,20.0,19.0,30.45,NNE,30,3.0,8.0,96,-99.99,,,-99.99,,2013-10-22 13:53:00,
2013-10-22 07:58:00,19.0,19.0,30.45,NNE,30,5.0,6.0,96,-99.99,,,-99.99,,2013-10-22 13:58:00,
2013-10-22 08:03:00,20.0,19.0,30.45,NNW,330,7.0,7.0,97,-99.99,,,-99.99,,2013-10-22 14:03:00,
2013-10-22 08:08:00,20.0,19.0,30.45,NNW,330,4.0,7.0,97,-99.99,,,-99.99,,2013-10-22 14:08:00,
2013-10-22 08:18:00,20.0,20.0,30.45,NNW,330,3.0,7.0,97,-99.99,,,-99.99,,2013-10-22 14:18:00,
2013-10-22 08:28:00,21.0,21.0,30.45,NW,320,0.0,5.0,98,-99.99,,,-99.99,,2013-10-22 14:28:00,
2013-10-22 08:33:00,22.0,21.0,30.46,NW,310,0.0,5.0,98,-99.99,,,-99.99,,2013-10-22 14:33:00,
2013-10-22 08:38:00,23.0,22.0,30.46,NNW,340,0.0,5.0,98,-99.99,,,-99.99,,2013-10-22 14:38:00,
2013-10-22 08:48:00,24.0,24.0,30.46,NNE,30,0.0,4.0,98,-99.99,,,-99.99,,2013-10-22 14:48:00,
2013-10-22 08:58:00,26.0,25.0,30.47,North,10,0.0,5.0,97,-99.99,,,-99.99,,2013-10-22 14:58:00,
2013-10-22 09:08:00,27.0,25.0,30.46,NNW,340,0.0,7.0,95,-99.99,,,-99.99,,2013-10-22 15:08:00,
2013-10-22 09:13:00,27.0,26.0,30.47,NNW,340,0.0,0.0,94,-99.99,,,-99.99,,2013-10-22 15:13:00,
2013-10-22 09:23:00,28.0,27.0,30.46,NNW,340,2.0,7.0,93,-99.99,,,-99.99,,2013-10-22 15:23:00,
2013-10-22 09:33:00,29.0,27.0,30.47,NNW,330,2.0,6.0,91,-99.99,,,-99.99,,2013-10-22 15:33:00,
2013-10-22 09:38:00,30.0,27.0,30.47,NW,310,3.0,6.0,89,-99.99,,,-99.99,,2013-10-22 15:38:00,
2013-10-22 09:48:00,31.0,27.0,30.47,SW,230,6.0,7.0,86,-99.99,,,-99.99,,2013-10-22 15:48:00,
2013-10-22 09:53:00,31.0,27.0,30.48,NW,310,0.0,6.0,86,-99.99,,,-99.99,,2013-10-22 15:53:00,
2013-10-22 09:58:00,32.0,27.0,30.47,WNW,300,0.0,3.0,84,-99.99,,,-99.99,,2013-10-22 15:58:00,
2013-10-22 10:03:00,32.0,27.0,30.47,SW,230,0.0,4.0,82,-99.99,,,-99.99,,2013-10-22 16:03:00,
2013-10-22 10:13:00,33.0,27.0,30.47,WSW,250,0.0,4.0,79,-99.99,,,-99.99,,2013-10-22 16:13:00,
2013-10-22 10:23:00,34.0,28.0,30.46,WSW,240,0.0,0.0,76,-99.99,,,-99.99,,2013-10-22 16:23:00,
2013-10-22 10:28:00,34.0,27.0,30.46,South,190,0.0,4.0,75,-99.99,,,-99.99,,2013-10-22 16:28:00,
2013-10-22 10:38:00,37.0,28.0,30.45,SSE,150,0.0,1.0,71,-99.99,,,-99.99,,2013-10-22 16:38:00,
2013-10-22 10:43:00,38.0,28.0,30.45,SW,230,3.0,4.0,69,-99.99,,,-99.99,,2013-10-22 16:43:00,
2013-10-22 10:53:00,38.0,28.0,30.45,SW,230,0.0,3.0,68,-99.99,,,-99.99,,2013-10-22 16:53:00,
2013-10-22 10:58:00,39.0,28.0,30.45,SSW,200,0.0,3.0,66,-99.99,,,-99.99,,2013-10-22 16:58:00,
2013-10-22 11:08:00,40.0,29.0,30.45,SSW,200,2.0,5.0,63,-99.99,,,-99.99,,2013-10-22 17:08:00,
2013-10-22 11:18:00,41.0,28.0,30.44,South,170,3.0,5.0,58,-99.99,,,-99.99,,2013-10-22 17:18:00,
2013-10-22 11:28:00,42.0,28.0,30.44,SSE,160,0.0,5.0,56,-99.99,,,-99.99,,2013-10-22 17:28:00,
2013-10-22 11:33:00,43.0,27.0,30.44,SSE,160,0.0,3.0,54,-99.99,,,-99.99,,2013-10-22 17:33:00,
2013-10-22 11:38:00,43.0,28.0,30.44,SSW,200,0.0,5.0,54,-99.99,,,-99.99,,2013-10-22 17:38:00,
2013-10-22 11:48:00,44.0,27.0,30.44,West,260,3.0,4.0,51,-99.99,,,-99.99,,2013-10-22 17:48:00,
2013-10-22 11:58:00,44.0,26.0,30.43,SSE,160,0.0,4.0,50,-99.99,,,-99.99,,2013-10-22 17:58:00,
2013-10-22 12:03:00,44.0,27.0,30.43,South,180,3.0,4.0,49,-99.99,,,-99.99,,2013-10-22 18:03:00,
2013-10-22 12:13:00,46.0,27.0,30.43,ENE,70,3.0,6.0,47,-99.99,,,-99.99,,2013-10-22 18:13:00,
2013-10-22 12:23:00,47.0,27.0,30.43,SSE,160,8.0,8.0,46,-99.99,,,-99.99,,2013-10-22 18:23:00,
2013-10-22 12:28:00,48.0,28.0,30.42,South,180,7.0,10.0,47,-99.99,,,-99.99,,2013-10-22 18:28:00,
2013-10-22 12:38:00,49.0,28.0,30.42,South,190,7.0,9.0,45,-99.99,,,-99.99,,2013-10-22 18:38:00,
2013-10-22 12:43:00,49.0,28.0,30.42,South,170,11.0,11.0,45,-99.99,,,-99.99,,2013-10-22 18:43:00,
2013-10-22 12:48:00,50.0,29.0,30.42,SSE,160,10.0,12.0,45,-99.99,,,-99.99,,2013-10-22 18:48:00,
2013-10-22 12:58:00,51.0,29.0,30.42,SE,130,6.0,12.0,43,-99.99,,,-99.99,,2013-10-22 18:58:00,
2013-10-22 13:03:00,51.0,30.0,30.42,SSE,160,12.0,13.0,45,-99.99,,,-99.99,,2013-10-22 19:03:00,
2013-10-22 13:13:00,52.0,30.0,30.41,SSE,160,10.0,11.0,44,-99.99,,,-99.99,,2013-10-22 19:13:00,
2013-10-22 13:23:00,52.0,30.0,30.40,South,170,11.0,12.0,42,-99.99,,,-99.99,,2013-10-22 19:23:00,
2013-10-22 13:28:00,52.0,29.0,30.40,South,190,9.0,11.0,42,-99.99,,,-99.99,,2013-10-22 19:28:00,
2013-10-22 13:38:00,52.0,30.0,30.40,SSE,160,10.0,12.0,42,-99.99,,,-99.99,,2013-10-22 19:38:00,
2013-10-22 13:46:00,53.0,30.0,30.40,SSE,160,10.0,10.0,41,-99.99,,,-99.99,,2013-10-22 19:46:00,
2013-10-22 13:51:00,53.0,30.0,30.39,South,180,11.0,11.0,40,-99.99,,,-99.99,,2013-10-22 19:51:00,
2013-10-22 13:56:00,54.0,29.0,30.39,South,170,9.0,12.0,39,-99.99,,,-99.99,,2013-10-22 19:56:00,
2013-10-22 14:06:00,54.0,29.0,30.39,SE,130,9.0,10.0,38,-99.99,,,-99.99,,2013-10-22 20:06:00,
2013-10-22 14:16:00,55.0,29.0,30.39,South,180,11.0,11.0,38,-99.99,,,-99.99,,2013-10-22 20:16:00,
2013-10-22 14:21:00,55.0,29.0,30.39,ESE,110,7.0,12.0,37,-99.99,,,-99.99,,2013-10-22 20:21:00,
2013-10-22 14:31:00,55.0,29.0,30.39,SSE,160,8.0,9.0,37,-99.99,,,-99.99,,2013-10-22 20:31:00,
2013-10-22 14:36:00,55.0,28.0,30.38,SSE,160,5.0,10.0,35,-99.99,,,-99.99,,2013-10-22 20:36:00,
2013-10-22 14:46:00,56.0,29.0,30.39,SSE,160,7.0,11.0,35,-99.99,,,-99.99,,2013-10-22 20:46:00,
2013-10-22 14:51:00,56.0,29.0,30.39,SSE,160,7.0,10.0,35,-99.99,,,-99.99,,2013-10-22 20:51:00,
2013-10-22 15:01:00,56.0,28.0,30.39,SSE,150,3.0,9.0,33,-99.99,,,-99.99,,2013-10-22 21:01:00,
2013-10-22 15:11:00,57.0,28.0,30.39,South,190,6.0,11.0,34,-99.99,,,-99.99,,2013-10-22 21:11:00,
2013-10-22 15:16:00,57.0,28.0,30.39,South,180,5.0,10.0,33,-99.99,,,-99.99,,2013-10-22 21:16:00,
2013-10-22 15:26:00,56.0,28.0,30.39,South,190,7.0,9.0,33,-99.99,,,-99.99,,2013-10-22 21:26:00,
2013-10-22 15:36:00,56.0,28.0,30.38,South,170,7.0,10.0,34,-99.99,,,-99.99,,2013-10-22 21:36:00,
2013-10-22 15:41:00,57.0,28.0,30.38,South,180,7.0,9.0,34,-99.99,,,-99.99,,2013-10-22 21:41:00,
2013-10-22 15:46:00,57.0,29.0,30.38,SSE,160,0.0,9.0,35,-99.99,,,-99.99,,2013-10-22 21:46:00,
2013-10-22 15:55:00,58.0,28.0,30.37,SSE,160,3.0,7.0,33,-99.99,,,-99.99,,2013-10-22 21:55:00,
2013-10-22 16:00:00,58.0,30.0,30.37,SW,230,4.0,7.0,35,-99.99,,,-99.99,,2013-10-22 22:00:00,
2013-10-22 16:10:00,58.0,28.0,30.37,West,280,8.0,9.0,31,-99.99,,,-99.99,,2013-10-22 22:10:00,
2013-10-22 16:20:00,58.0,27.0,30.37,NW,310,4.0,13.0,31,-99.99,,,-99.99,,2013-10-22 22:20:00,
2013-10-22 16:30:00,58.0,27.0,30.37,WNW,290,10.0,12.0,31,-99.99,,,-99.99,,2013-10-22 22:30:00,
2013-10-22 16:35:00,58.0,27.0,30.37,NW,320,9.0,15.0,31,-99.99,,,-99.99,,2013-10-22 22:35:00,
2013-10-22 16:45:00,57.0,27.0,30.36,WNW,300,13.0,13.0,33,-99.99,,,-99.99,,2013-10-22 22:45:00,
2013-10-22 16:50:00,56.0,27.0,30.36,WNW,290,13.0,13.0,32,-99.99,,,-99.99,,2013-10-22 22:50:00,
2013-10-22 16:55:00,56.0,27.0,30.36,NW,320,9.0,12.0,33,-99.99,,,-99.99,,2013-10-22 22:55:00,
2013-10-22 17:00:00,55.0,27.0,30.35,NW,310,11.0,13.0,34,-99.99,,,-99.99,,2013-10-22 23:00:00,
2013-10-22 17:05:00,55.0,27.0,30.35,NNW,340,10.0,11.0,34,-99.99,,,-99.99,,2013-10-22 23:05:00,
2013-10-22 17:15:00,55.0,27.0,30.35,WNW,290,7.0,11.0,35,-99.99,,,-99.99,,2013-10-22 23:15:00,
2013-10-22 17:20:00,54.0,27.0,30.35,West,270,8.0,9.0,35,-99.99,,,-99.99,,2013-10-22 23:20:00,
2013-10-22 17:25:00,54.0,27.0,30.35,WNW,300,2.0,9.0,36,-99.99,,,-99.99,,2013-10-22 23:25:00,
2013-10-22 17:30:00,54.0,28.0,30.35,North,350,6.0,7.0,37,-99.99,,,-99.99,,2013-10-22 23:30:00,
2013-10-22 17:40:00,52.0,28.0,30.35,North,0,4.0,6.0,40,-99.99,,,-99.99,,2013-10-22 23:40:00,
2013-10-22 17:50:00,50.0,28.0,30.35,North,350,2.0,2.0,43,-99.99,,,-99.99,,2013-10-22 23:50:00,
2013-10-22 17:55:00,49.0,28.0,30.35,North,350,0.0,4.0,44,-99.99,,,-99.99,,2013-10-22 23:55:00,
2013-10-22 18:00:00,49.0,28.0,30.36,North,350,0.0,5.0,46,-99.99,,,-99.99,,2013-10-23 00:00:00,
2013-10-22 18:10:00,47.0,29.0,30.36,North,350,0.0,0.0,48,-99.99,,,-99.99,,2013-10-23 00:10:00,
2013-10-22 18:20:00,46.0,28.0,30.36,NNE,30,0.0,5.0,49,-99.99,,,-99.99,,2013-10-23 00:20:00,
2013-10-22 18:25:00,46.0,28.0,30.36,North,0,3.0,6.0,50,-99.99,,,-99.99,,2013-10-23 00:25:00,
2013-10-22 18:30:00,45.0,29.0,30.37,WNW,290,0.0,6.0,53,-99.99,,,-99.99,,2013-10-23 00:30:00,
2013-10-22 18:40:00,44.0,28.0,30.37,NW,310,3.0,4.0,53,-99.99,,,-99.99,,2013-10-23 00:40:00,
2013-10-22 18:50:00,44.0,28.0,30.37,NW,320,6.0,6.0,53,-99.99,,,-99.99,,2013-10-23 00:50:00,
2013-10-22 18:55:00,44.0,28.0,30.37,NW,320,7.0,7.0,52,-99.99,,,-99.99,,2013-10-23 00:55:00,
2013-10-22 19:05:00,44.0,28.0,30.37,NW,320,0.0,6.0,53,-99.99,,,-99.99,,2013-10-23 01:05:00,
2013-10-22 19:15:00,43.0,28.0,30.38,NNE,30,4.0,5.0,55,-99.99,,,-99.99,,2013-10-23 01:15:00,
2013-10-22 19:20:00,43.0,28.0,30.38,NNW,330,3.0,4.0,57,-99.99,,,-99.99,,2013-10-23 01:20:00,
2013-10-22 19:30:00,41.0,29.0,30.39,NNE,20,5.0,7.0,60,-99.99,,,-99.99,,2013-10-23 01:30:00,
2013-10-22 19:35:00,41.0,29.0,30.38,NNW,330,4.0,7.0,61,-99.99,,,-99.99,,2013-10-23 01:35:00,
2013-10-22 19:45:00,40.0,29.0,30.39,NNE,20,6.0,8.0,64,-99.99,,,-99.99,,2013-10-23 01:45:00,
2013-10-22 19:50:00,39.0,28.0,30.39,NE,50,3.0,8.0,65,-99.99,,,-99.99,,2013-10-23 01:50:00,
2013-10-22 20:00:00,38.0,28.0,30.39,NE,50,0.0,5.0,67,-99.99,,,-99.99,,2013-10-23 02:00:00,
2013-10-22 20:05:00,38.0,29.0,30.39,NE,50,0.0,4.0,68,-99.99,,,-99.99,,2013-10-23 02:05:00,
2013-10-22 20:15:00,38.0,29.0,30.39,NNE,30,0.0,0.0,69,-99.99,,,-99.99,,2013-10-23 02:15:00,
2013-10-22 20:25:00,37.0,28.0,30.39,North,10,0.0,6.0,71,-99.99,,,-99.99,,2013-10-23 02:25:00,
2013-10-22 20:35:00,36.0,28.0,30.40,NE,50,2.0,4.0,72,-99.99,,,-99.99,,2013-10-23 02:35:00,
2013-10-22 20:45:00,36.0,28.0,30.40,NE,40,0.0,5.0,73,-99.99,,,-99.99,,2013-10-23 02:45:00,
2013-10-22 20:55:00,36.0,28.0,30.40,North,350,4.0,8.0,73,-99.99,,,-99.99,,2013-10-23 02:55:00,
2013-10-22 21:05:00,35.0,28.0,30.40,NE,40,3.0,4.0,73,-99.99,,,-99.99,,2013-10-23 03:05:00,
2013-10-22 21:15:00,34.0,27.0,30.40,ENE,60,3.0,6.0,75,-99.99,,,-99.99,,2013-10-23 03:15:00,
2013-10-22 21:25:00,34.0,27.0,30.41,NE,50,3.0,3.0,77,-99.99,,,-99.99,,2013-10-23 03:25:00,
2013-10-22 21:30:00,33.0,27.0,30.40,NE,40,0.0,4.0,78,-99.99,,,-99.99,,2013-10-23 03:30:00,
2013-10-22 21:35:00,33.0,27.0,30.41,NE,40,0.0,0.0,79,-99.99,,,-99.99,,2013-10-23 03:35:00,
2013-10-22 21:45:00,33.0,27.0,30.41,ENE,70,3.0,4.0,80,-99.99,,,-99.99,,2013-10-23 03:45:00,
2013-10-22 21:50:00,33.0,27.0,30.41,North,10,0.0,4.0,80,-99.99,,,-99.99,,2013-10-23 03:50:00,
2013-10-22 21:55:00,33.0,27.0,30.41,ENE,70,0.0,4.0,80,-99.99,,,-99.99,,2013-10-23 03:55:00,
2013-10-22 22:00:00,32.0,27.0,30.41,NE,50,0.0,4.0,79,-99.99,,,-99.99,,2013-10-23 04:00:00,
2013-10-22 22:05:00,32.0,27.0,30.41,North,10,3.0,3.0,79,-99.99,,,-99.99,,2013-10-23 04:05:00,
2013-10-22 22:09:00,32.0,27.0,30.41,North,0,6.0,6.0,80,-99.99,,,-99.99,,2013-10-23 04:09:00,
2013-10-22 22:14:00,32.0,27.0,30.41,NNW,330,0.0,5.0,81,-99.99,,,-99.99,,2013-10-23 04:14:00,
2013-10-22 22:20:00,32.0,27.0,30.41,NNW,330,0.0,0.0,82,-99.99,,,-99.99,,2013-10-23 04:20:00,
2013-10-22 22:25:00,31.0,26.0,30.41,NNW,330,0.0,0.0,82,-99.99,,,-99.99,,2013-10-23 04:25:00,
2013-10-22 22:30:00,31.0,26.0,30.41,WNW,300,0.0,2.0,81,-99.99,,,-99.99,,2013-10-23 04:30:00,
2013-10-22 22:35:00,31.0,26.0,30.41,North,10,2.0,0.0,82,-99.99,,,-99.99,,2013-10-23 04:35:00,
2013-10-22 22:39:00,31.0,26.0,30.41,North,10,0.0,6.0,83,-99.99,,,-99.99,,2013-10-23 04:39:00,
2013-10-22 22:49:00,30.0,26.0,30.41,NNW,340,0.0,6.0,85,-99.99,,,-99.99,,2013-10-23 04:49:00,
2013-10-22 22:54:00,30.0,26.0,30.41,NW,320,0.0,5.0,85,-99.99,,,-99.99,,2013-10-23 04:54:00,
2013-10-22 23:04:00,30.0,26.0,30.41,North,350,6.0,6.0,86,-99.99,,,-99.99,,2013-10-23 05:04:00,
2013-10-22 23:14:00,29.0,26.0,30.42,NNE,30,0.0,7.0,87,-99.99,,,-99.99,,2013-10-23 05:14:00,
2013-10-22 23:19:00,29.0,26.0,30.42,North,350,5.0,0.0,88,-99.99,,,-99.99,,2013-10-23 05:19:00,
2013-10-22 23:24:00,29.0,26.0,30.42,WNW,290,0.0,7.0,89,-99.99,,,-99.99,,2013-10-23 05:24:00,
2013-10-22 23:29:00,29.0,26.0,30.42,NNW,330,7.0,8.0,89,-99.99,,,-99.99,,2013-10-23 05:29:00,
2013-10-22 23:39:00,29.0,26.0,30.42,North,0,5.0,8.0,89,-99.99,,,-99.99,,2013-10-23 05:39:00,
2013-10-22 23:44:00,29.0,26.0,30.42,NW,320,7.0,7.0,89,-99.99,,,-99.99,,2013-10-23 05:44:00,
2013-10-22 23:54:00,28.0,26.0,30.42,WNW,300,8.0,8.0,90,-99.99,,,-99.99,,2013-10-23 05:54:00,
2013-10-22 23:59:00,29.0,26.0,30.42,NW,320,8.0,9.0,91,-99.99,,,-99.99,,2013-10-23 05:59:00,